Location: Pella
(41.4080°N, 92.9160°W)
Time: 19:13:24
(UTC-05:00)

Iridium 91 - Visible Passes

Search period start: 17 April 2014 00:00
Search period end: 27 April 2014 00:00
Orbit: 775 x 780 km, 86.4° (Epoch: 17 April)

Date Brightness Start Highest point End Pass type
(mag) Time Alt. Az. Time Alt. Az. Time Alt. Az.
17 Apr 7.7 01:41:51 10° NNE 01:44:14 21° NE 01:44:14 21° NE visible
17 Apr 7.2 03:22:20 10° NNW 03:24:42 23° NW 03:24:42 23° NW visible
18 Apr 8.1 01:09:27 10° NE 01:10:45 13° NE 01:10:45 13° NE visible
18 Apr 7.0 02:48:27 10° N 02:51:13 32° NNW 02:51:13 32° NNW visible
19 Apr 7.0 02:14:53 10° N 02:17:46 33° N 02:17:46 33° N visible
19 Apr 7.8 03:57:47 10° NW 03:58:14 11° NW 03:58:14 11° NW visible
20 Apr 7.4 01:41:37 10° NNE 01:44:18 27° NE 01:44:18 27° NE visible
20 Apr 7.4 03:22:50 10° NNW 03:24:46 18° NW 03:24:46 18° NW visible
21 Apr 7.8 01:08:45 10° NNE 01:10:51 18° NE 01:10:51 18° NE visible
21 Apr 7.1 02:48:43 10° NNW 02:51:19 27° NNW 02:51:19 27° NNW visible
22 Apr 8.2 00:36:57 10° NE 00:37:24 11° NE 00:37:24 11° NE visible
22 Apr 6.9 02:14:58 10° N 02:17:52 34° N 02:17:52 34° N visible
23 Apr 7.1 01:41:30 10° N 01:44:25 32° NNE 01:44:25 32° NNE visible
23 Apr 7.7 03:23:36 10° NW 03:24:53 14° NW 03:24:53 14° NW visible
24 Apr 7.5 01:08:22 10° NNE 01:10:58 24° NE 01:10:58 24° NE visible
24 Apr 7.3 02:49:06 10° NNW 02:51:27 22° NW 02:51:27 22° NW visible
25 Apr 7.9 00:35:45 10° NE 00:37:32 15° NE 00:37:32 15° NE visible
25 Apr 7.0 02:15:08 10° NNW 02:18:00 32° NNW 02:18:00 32° NNW visible
26 Apr 6.9 01:41:30 10° N 01:44:34 36° N 01:44:34 36° N visible
